GW2328 Weather Reports


Display with metric or nautical units.
time (UTC)temp
F
wind
direction
speed
MPH
gust
MPH
rain 1hr
in
rain 24hr
in
rain mn
in
humidity
%
barometer
mb
20260904191118 101 137 0.0 1.0 0.00 0.00 0.00 47 1019.2
20260904190614 102 144 2.0 3.0 0.00 0.00 0.00 46 1019.4
20260904190109 102 172 1.0 1.0 0.00 0.00 0.00 47 1019.2
20260904185605 101 164 2.0 5.0 0.00 0.00 0.00 47 1019.4
20260904185100 100 142 1.0 5.0 0.00 0.00 0.00 48 1019.4
20260904184559 100 154 1.0 3.0 0.00 0.00 0.00 48 1019.5
20260904184055 100 146 1.0 2.0 0.00 0.00 0.00 48 1019.6
20260904183550 99 134 1.0 3.0 0.00 0.00 0.00 48 1019.6
20260904183045 99 85 2.0 5.0 0.00 0.00 0.00 49 1019.9
20260904182541 99 142 1.0 1.0 0.00 0.00 0.00 50 1019.8
20260904182041 97 124 1.0 1.0 0.00 0.00 0.00 51 1019.7
20260904181536 98 134 2.0 3.0 0.00 0.00 0.00 49 1019.7
20260904181031 99 157 2.0 5.0 0.00 0.00 0.00 48 1019.9
20260904180531 98 135 0.0 2.0 0.00 0.00 0.00 49 1020.0
20260904180026 98 282 3.0 3.0 0.00 0.00 0.00 48 1020.0
20260904175520 100 119 2.0 5.0 0.00 0.00 0.00 49 1020.0
20260904175019 99 140 3.0 3.0 0.00 0.00 0.00 49 1020.1
20260904174514 98 142 0.0 1.0 0.00 0.00 0.00 49 1020.4
20260904174011 100 141 1.0 2.0 0.00 0.00 0.00 49 1020.3
20260904173511 100 144 0.0 1.0 0.00 0.00 0.00 51 1020.5
20260904173007 99 142 1.0 2.0 0.00 0.00 0.00 51 1020.5
20260904172502 99 106 2.0 2.0 0.00 0.00 0.00 52 1020.3
20260904172001 98 122 0.0 5.0 0.00 0.00 0.00 52 1020.5
20260904171456 98 147 1.0 3.0 0.00 0.00 0.00 52 1020.5
20260904170952 98 125 0.0 2.0 0.00 0.00 0.00 52 1020.3
20260904170447 99 151 0.0 3.0 0.00 0.00 0.00 52 1020.6
20260904165943 98 153 1.0 3.0 0.00 0.00 0.00 52 1020.6
20260904165442 98 137 0.0 1.0 0.00 0.00 0.00 52 1020.6
20260904164941 97 147 1.0 1.0 0.00 0.00 0.00 52 1020.6
20260904164436 98 100 1.0 2.0 0.00 0.00 0.00 52 1020.6
20260904163932 97 148 0.0 1.0 0.00 0.00 0.00 53 1020.6
20260904163431 97 142 0.0 3.0 0.00 0.00 0.00 53 1020.5
20260904162926 97 146 0.0 1.0 0.00 0.00 0.00 54 1020.5
20260904162421 97 125 1.0 2.0 0.00 0.00 0.00 53 1020.5
20260904161916 96 141 0.0 1.0 0.00 0.00 0.00 54 1020.7
20260904161406 96 112 0.0 3.0 0.00 0.00 0.00 54 1020.8
20260904160902 97 120 2.0 5.0 0.00 0.00 0.00 54 1020.6
20260904160357 96 134 0.0 1.0 0.00 0.00 0.00 55 1020.6
20260904155852 97 129 0.0 2.0 0.00 0.00 0.00 55 1020.7
20260904155346 96 138 0.0 1.0 0.00 0.00 0.00 57 1020.5
20260904154844 96 117 0.0 1.0 0.00 0.00 0.00 58 1020.7
20260904154339 96 157 0.0 2.0 0.00 0.00 0.00 59 1020.6
20260904153835 96 152 2.0 3.0 0.00 0.00 0.00 61 1020.8
20260904153330 95 139 0.0 1.0 0.00 0.00 0.00 63 1020.7
20260904152826 94 135 0.0 1.0 0.00 0.00 0.00 65 1020.6
20260904152321 93 158 1.0 2.0 0.00 0.00 0.00 67 1020.7
20260904151816 93 141 1.0 2.0 0.00 0.00 0.00 69 1020.7
20260904151315 93 139 1.0 1.0 0.00 0.00 0.00 72 1020.7
20260904150811 92 143 0.0 0.0 0.00 0.00 0.00 74 1020.6
20260904150306 91 148 0.0 1.0 0.00 0.00 0.00 76 1020.7
20260904145804 91 144 0.0 0.0 0.00 0.00 0.00 78 1020.7
20260904145300 90 143 0.0 0.0 0.00 0.00 0.00 79 1020.6
20260904144755 89 143 0.0 1.0 0.00 0.00 0.00 81 1020.8
20260904144251 88 143 0.0 0.0 0.00 0.00 0.00 83 1020.9
20260904143747 87 145 0.0 0.0 0.00 0.00 0.00 84 1020.7
20260904143243 87 146 0.0 1.0 0.00 0.00 0.00 86 1020.6
20260904142739 87 151 0.0 0.0 0.00 0.00 0.00 88 1020.8
20260904142235 86 152 0.0 0.0 0.00 0.00 0.00 90 1020.7
20260904141735 86 153 0.0 0.0 0.00 0.00 0.00 92 1020.6
20260904141230 85 153 0.0 0.0 0.00 0.00 0.00 93 1020.6
20260904140726 83 158 0.0 0.0 0.00 0.00 0.00 94 1020.7
20260904140221 82 158 1.0 1.0 0.00 0.00 0.00 94 1020.7
20260904135719 81 154 0.0 0.0 0.00 0.00 0.00 96 1020.5
20260904135215 80 155 0.0 0.0 0.00 0.00 0.00 96 1020.4
20260904134711 80 155 0.0 0.0 0.00 0.00 0.00 97 1020.3
20260904134210 79 157 0.0 1.0 0.00 0.00 0.00 98 1020.5
20260904133705 78 151 0.0 1.0 0.00 0.00 0.00 99 1020.6
20260904133201 78 151 0.0 0.0 0.00 0.00 0.00 99 1020.5
20260904132700 77 151 0.0 0.0 0.00 0.00 0.00 99 1020.8
20260904132156 77 151 0.0 0.0 0.00 0.00 0.00 99 1020.8
20260904131655 76 151 0.0 0.0 0.00 0.00 0.00 99 1020.6
20260904131150 76 151 0.0 0.0 0.00 0.00 0.00 99 1020.6
20260904130645 75 151 0.0 0.0 0.00 0.00 0.00 99 1020.6
20260904130145 75 151 0.0 0.0 0.00 0.00 0.00 99 1020.8
20260904125641 75 151 0.0 0.0 0.00 0.00 0.00 99 1020.5
20260904125136 74 151 0.0 0.0 0.00 0.00 0.00 99 1020.6
20260904124631 74 151 0.0 0.0 0.00 0.00 0.00 99 1020.5
20260904124127 74 151 0.0 0.0 0.00 0.00 0.00 99 1020.3
20260904123626 73 151 0.0 0.0 0.00 0.00 0.00 99 1020.4
20260904123122 73 151 0.0 0.0 0.00 0.00 0.00 99 1020.4
20260904122617 73 151 0.0 0.0 0.00 0.00 0.00 99 1020.4
20260904122112 73 151 0.0 0.0 0.00 0.00 0.00 99 1020.3
20260904121608 72 151 0.0 0.0 0.00 0.00 0.00 99 1020.2
20260904121103 72 151 0.0 0.0 0.00 0.00 0.00 99 1020.3
20260904120559 72 151 0.0 0.0 0.00 0.00 0.00 99 1020.0
20260904120054 72 151 0.0 0.0 0.00 0.00 0.00 99 1020.2
20260904115549 72 151 0.0 0.0 0.00 0.00 0.00 99 1019.9
20260904115045 72 151 0.0 0.0 0.00 0.00 0.00 99 1020.1
20260904114544 72 151 0.0 0.0 0.00 0.00 0.00 99 1019.9
20260904114039 72 151 0.0 0.0 0.00 0.00 0.00 99 1019.9
20260904113538 72 151 0.0 0.0 0.00 0.00 0.00 99 1019.9
20260904113033 72 151 0.0 0.0 0.00 0.00 0.00 99 1019.8
20260904112528 72 151 0.0 0.0 0.00 0.00 0.00 99 1020.0
20260904112024 72 151 0.0 0.0 0.00 0.00 0.00 99 1020.1
20260904111519 72 151 0.0 0.0 0.00 0.00 0.00 99 1019.9
20260904111014 72 151 0.0 0.0 0.00 0.00 0.00 99 1019.7
20260904110509 72 151 0.0 0.0 0.00 0.00 0.00 99 1019.9
20260904110004 72 151 0.0 0.0 0.00 0.00 0.00 99 1020.0
20260904105458 72 151 0.0 0.0 0.00 0.00 0.00 99 1019.7
20260904104953 72 151 0.0 0.0 0.00 0.00 0.00 99 1019.8
20260904104448 72 151 0.0 0.0 0.00 0.00 0.00 99 1019.8
20260904103944 72 151 0.0 0.0 0.00 0.00 0.00 99 1019.8
20260904103440 72 151 0.0 0.0 0.00 0.00 0.00 99 1019.7
20260904102930 72 151 0.0 0.0 0.00 0.00 0.00 99 1019.6
20260904102426 72 151 0.0 0.0 0.00 0.00 0.00 99 1019.5
20260904101921 72 151 0.0 0.0 0.00 0.00 0.00 99 1019.7
20260904101418 72 151 0.0 0.0 0.00 0.00 0.00 99 1019.7
20260904100913 72 151 0.0 0.0 0.00 0.00 0.00 99 1019.7
20260904100408 72 151 0.0 0.0 0.00 0.00 0.00 99 1019.7
20260904095903 72 151 0.0 0.0 0.00 0.00 0.00 99 1019.7
20260904095357 72 151 0.0 0.0 0.00 0.00 0.00 99 1019.7
20260904094853 73 151 0.0 0.0 0.00 0.00 0.00 99 1019.8
20260904094348 72 151 0.0 0.0 0.00 0.00 0.00 99 1019.5
20260904093844 72 151 0.0 0.0 0.00 0.00 0.00 99 1019.6
20260904093344 72 151 0.0 0.0 0.00 0.00 0.00 99 1019.5
20260904092839 73 151 0.0 0.0 0.00 0.00 0.00 99 1019.7
20260904092336 73 151 0.0 0.0 0.00 0.00 0.00 98 1019.7
20260904091832 73 151 0.0 0.0 0.00 0.00 0.00 98 1019.5
20260904091327 73 151 0.0 0.0 0.00 0.00 0.00 98 1019.5
20260904090822 73 151 0.0 0.0 0.00 0.00 0.00 98 1019.5
20260904090318 73 151 0.0 0.0 0.00 0.00 0.00 98 1019.5
20260904085813 73 151 0.0 0.0 0.00 0.00 0.00 98 1019.6
20260904085308 73 151 0.0 0.0 0.00 0.00 0.00 98 1019.4
20260904084802 73 151 0.0 0.0 0.00 0.00 0.00 98 1019.4
20260904084258 73 151 0.0 0.0 0.00 0.00 0.00 98 1019.3
20260904083754 73 151 0.0 0.0 0.00 0.00 0.00 98 1019.4
20260904083250 73 151 0.0 0.0 0.00 0.00 0.00 98 1019.5
20260904082745 73 151 0.0 0.0 0.00 0.00 0.00 98 1019.6
20260904082239 73 151 0.0 0.0 0.00 0.00 0.00 98 1019.3
20260904081735 73 151 0.0 0.0 0.00 0.00 0.00 98 1019.5
20260904081231 73 151 0.0 0.0 0.00 0.00 0.00 98 1019.5
20260904080726 73 151 0.0 0.0 0.00 0.00 0.00 98 1019.5
20260904080222 73 151 0.0 0.0 0.00 0.00 0.00 98 1019.3
20260904075718 73 151 0.0 0.0 0.00 0.00 0.00 98 1019.4
20260904075213 73 151 0.0 0.0 0.00 0.00 0.00 98 1019.4
20260904074712 73 151 0.0 0.0 0.00 0.00 0.00 98 1019.4
20260904074206 73 151 0.0 0.0 0.00 0.00 0.00 98 1019.5
20260904073702 73 151 0.0 0.0 0.00 0.00 0.00 98 1019.3
20260904073158 73 151 0.0 0.0 0.00 0.00 0.00 98 1019.3
20260904072653 73 151 0.0 0.0 0.00 0.00 0.00 98 1019.3
20260904072148 74 151 0.0 0.0 0.00 0.00 0.00 97 1019.2
20260904071644 74 151 0.0 0.0 0.00 0.00 0.00 97 1019.2
20260904071139 74 151 0.0 0.0 0.00 0.00 0.00 97 1019.2
20260904070637 74 151 0.0 0.0 0.00 0.00 0.00 97 1019.6
20260904070132 74 151 0.0 0.0 0.00 0.00 0.00 97 1019.3
20260904065632 74 151 0.0 0.0 0.00 0.00 0.00 97 1019.3
20260904065130 74 151 0.0 0.0 0.00 0.00 0.00 97 1019.6
20260904064624 74 151 0.0 0.0 0.00 0.00 0.00 97 1019.4
20260904064119 74 151 0.0 0.0 0.00 0.00 0.00 97 1019.7
20260904063615 74 151 0.0 0.0 0.00 0.00 0.00 97 1019.5
20260904063110 74 151 0.0 0.0 0.00 0.00 0.00 97 1019.3
20260904062607 74 151 0.0 0.0 0.00 0.00 0.00 97 1019.6
20260904062102 75 151 0.0 0.0 0.00 0.00 0.00 97 1019.7
20260904061557 75 151 0.0 0.0 0.00 0.00 0.00 97 1019.7
20260904061054 75 151 0.0 0.0 0.00 0.00 0.00 97 1019.6
20260904060550 75 151 0.0 0.0 0.00 0.00 0.00 96 1019.9
20260904060046 75 151 0.0 0.0 0.00 0.00 0.00 96 1019.7
20260904055540 75 151 0.0 0.0 0.00 0.00 0.00 96 1019.7
20260904055035 75 151 0.0 0.0 0.00 0.00 0.00 96 1019.6
20260904054531 75 151 0.0 0.0 0.00 0.00 0.00 96 1019.9
20260904054027 75 151 0.0 0.0 0.00 0.00 0.00 96 1019.8
20260904053526 75 151 0.0 0.0 0.00 0.00 0.00 96 1020.0
20260904053022 75 151 0.0 0.0 0.00 0.00 0.00 96 1019.9
20260904052518 75 151 0.0 0.0 0.00 0.00 0.00 96 1019.8
20260904052014 75 151 0.0 0.0 0.00 0.00 0.00 96 1019.8
20260904051511 75 151 0.0 0.0 0.00 0.00 0.00 96 1019.7
20260904051009 76 151 0.0 0.0 0.00 0.00 0.00 95 1019.9
20260904050506 76 151 0.0 0.0 0.00 0.00 0.00 95 1019.7
20260904050001 76 151 0.0 0.0 0.00 0.00 0.00 95 1019.8
20260904045456 76 151 0.0 0.0 0.00 0.00 0.00 95 1019.8
20260904044950 76 151 0.0 0.0 0.00 0.00 0.00 95 1019.7
20260904044447 76 151 0.0 0.0 0.00 0.00 0.00 95 1019.8
20260904043943 76 151 0.0 0.0 0.00 0.00 0.00 95 1019.7
20260904043439 76 151 0.0 0.0 0.00 0.00 0.00 94 1019.8
20260904042934 76 151 0.0 0.0 0.00 0.00 0.00 94 1019.6
20260904042431 77 151 0.0 0.0 0.00 0.00 0.00 94 1019.6
20260904041925 77 151 0.0 0.0 0.00 0.00 0.00 94 1019.6
20260904041422 77 151 0.0 0.0 0.00 0.00 0.00 94 1019.6
20260904040918 77 151 0.0 0.0 0.00 0.00 0.00 94 1019.9
20260904040412 77 151 0.0 0.0 0.00 0.00 0.00 93 1019.6
20260904035908 77 151 0.0 0.0 0.00 0.00 0.00 93 1019.7
20260904035404 77 151 0.0 0.0 0.00 0.00 0.00 93 1019.8
20260904034903 77 151 0.0 0.0 0.00 0.00 0.00 93 1019.5
20260904034358 77 151 0.0 0.0 0.00 0.00 0.00 92 1019.7
20260904033854 77 151 0.0 0.0 0.00 0.00 0.00 92 1019.9
20260904033350 78 151 0.0 0.0 0.00 0.00 0.00 92 1019.8
20260904032847 78 151 0.0 0.0 0.00 0.00 0.00 92 1019.8
20260904032346 78 151 0.0 0.0 0.00 0.00 0.00 91 1019.9
20260904031840 78 151 0.0 0.0 0.00 0.00 0.00 91 1019.8
20260904031336 78 151 0.0 0.0 0.00 0.00 0.00 91 1019.7
20260904030832 78 151 0.0 0.0 0.00 0.00 0.00 91 1019.7
20260904030327 78 151 0.0 0.0 0.00 0.00 0.00 90 1020.1
20260904025823 78 151 0.0 0.0 0.00 0.00 0.00 90 1019.8
20260904025318 78 151 0.0 0.0 0.00 0.00 0.00 89 1019.9
20260904024813 78 151 0.0 0.0 0.00 0.00 0.00 89 1019.8
20260904024308 79 151 0.0 0.0 0.00 0.00 0.00 89 1019.9
20260904023805 79 151 0.0 0.0 0.00 0.00 0.00 88 1019.9
20260904023300 79 151 0.0 0.0 0.00 0.00 0.00 88 1019.9
20260904022759 79 151 0.0 0.0 0.00 0.00 0.00 88 1019.9
20260904022256 80 151 0.0 0.0 0.00 0.00 0.00 87 1019.9
20260904021752 80 151 0.0 0.0 0.00 0.00 0.00 86 1019.9
20260904021247 80 151 0.0 0.0 0.00 0.00 0.00 86 1019.9
20260904020743 80 151 0.0 0.0 0.00 0.00 0.00 86 1020.0
20260904020242 80 151 0.0 0.0 0.00 0.00 0.00 85 1019.9
20260904015741 80 151 0.0 0.0 0.00 0.00 0.00 85 1019.8
20260904015237 81 151 0.0 0.0 0.00 0.00 0.00 84 1019.8
20260904014735 81 151 0.0 0.0 0.00 0.00 0.00 84 1019.7
20260904014230 81 151 0.0 0.0 0.00 0.00 0.00 83 1019.8
20260904013726 81 151 0.0 0.0 0.00 0.00 0.00 82 1019.7
20260904013222 82 151 0.0 0.0 0.00 0.00 0.00 82 1019.6
20260904012712 82 151 0.0 0.0 0.00 0.00 0.00 81 1019.7
20260904012211 82 151 0.0 0.0 0.00 0.00 0.00 80 1019.6
20260904011711 82 151 0.0 0.0 0.00 0.00 0.00 80 1019.6
20260904011207 83 151 0.0 0.0 0.00 0.00 0.00 79 1019.5
20260904010707 83 151 0.0 0.0 0.00 0.00 0.00 78 1019.5
20260904010204 83 151 0.0 0.0 0.00 0.00 0.00 77 1019.4
20260904005659 84 151 0.0 0.0 0.00 0.00 0.00 76 1019.6
20260904005155 84 151 0.0 0.0 0.00 0.00 0.00 75 1019.3
20260904004650 84 151 0.0 0.0 0.00 0.00 0.00 74 1019.2
20260904004149 85 151 0.0 0.0 0.00 0.00 0.00 73 1019.1
20260904003645 85 151 0.0 0.0 0.00 0.00 0.00 72 1019.0
20260904003141 86 151 0.0 0.0 0.00 0.00 0.00 72 1018.9
20260904002637 86 151 0.0 0.0 0.00 0.00 0.00 71 1018.9
20260904002132 87 151 0.0 0.0 0.00 0.00 0.00 69 1019.0
20260904001627 87 151 0.0 0.0 0.00 0.00 0.00 68 1018.9
20260904001125 88 155 0.0 0.0 0.00 0.00 0.00 67 1018.7
20260904000621 88 157 0.0 0.0 0.00 0.00 0.00 65 1018.8
20260904000117 89 158 0.0 0.0 0.00 0.00 0.00 64 1018.8
20260903235616 89 159 0.0 0.0 0.00 0.00 0.00 64 1018.8
20260903235113 90 159 0.0 0.0 0.00 0.00 0.00 63 1018.6
20260903234607 90 159 0.0 0.0 0.00 0.00 0.00 62 1018.9
20260903234103 90 160 0.0 0.0 0.00 0.00 0.00 61 1018.6
20260903233559 91 160 0.0 0.0 0.00 0.00 0.00 61 1018.7
20260903233054 91 160 0.0 0.0 0.00 0.00 0.00 60 1018.6
20260903232549 92 160 0.0 0.0 0.00 0.00 0.00 60 1018.5
20260903232044 92 160 0.0 0.0 0.00 0.00 0.00 59 1018.6
20260903231539 93 160 0.0 0.0 0.00 0.00 0.00 57 1018.4
20260903231033 93 160 0.0 0.0 0.00 0.00 0.00 56 1018.5
20260903230530 94 161 0.0 0.0 0.00 0.00 0.00 55 1018.6
20260903230028 94 162 0.0 0.0 0.00 0.00 0.00 55 1018.5
20260903225526 94 168 0.0 0.0 0.00 0.00 0.00 54 1018.5
20260903225022 95 151 0.0 0.0 0.00 0.00 0.00 54 1018.5
20260903224518 95 151 0.0 0.0 0.00 0.00 0.00 53 1018.6
20260903224014 95 167 0.0 1.0 0.00 0.00 0.00 52 1018.4
20260903223513 96 153 0.0 1.0 0.00 0.00 0.00 52 1018.6
20260903223012 96 170 0.0 0.0 0.00 0.00 0.00 51 1018.5
20260903222507 96 157 0.0 1.0 0.00 0.00 0.00 50 1018.5
20260903222006 97 167 0.0 0.0 0.00 0.00 0.00 49 1018.7
20260903221501 97 159 0.0 1.0 0.00 0.00 0.00 48 1018.6
20260903220958 98 169 0.0 1.0 0.00 0.00 0.00 47 1018.6
20260903220453 99 155 0.0 1.0 0.00 0.00 0.00 47 1018.4
20260903215950 100 167 1.0 1.0 0.00 0.00 0.00 46 1018.4
20260903215447 100 157 0.0 1.0 0.00 0.00 0.00 46 1018.6
20260903214945 100 161 1.0 2.0 0.00 0.00 0.00 46 1018.6
20260903214441 100 160 1.0 1.0 0.00 0.00 0.00 45 1018.6
20260903213941 100 156 0.0 1.0 0.00 0.00 0.00 46 1018.7
20260903213436 99 149 0.0 2.0 0.00 0.00 0.00 46 1018.5
20260903212932 100 192 2.0 2.0 0.00 0.00 0.00 45 1018.8
20260903212428 100 157 0.0 1.0 0.00 0.00 0.00 45 1018.5
20260903211922 101 252 3.0 3.0 0.00 0.00 0.00 45 1018.7
20260903211418 100 166 1.0 1.0 0.00 0.00 0.00 46 1018.6
20260903210914 100 174 0.0 1.0 0.00 0.00 0.00 47 1018.8
20260903210413 100 172 0.0 2.0 0.00 0.00 0.00 46 1018.6
20260903205909 100 161 1.0 2.0 0.00 0.00 0.00 47 1018.9
20260903205408 99 156 0.0 1.0 0.00 0.00 0.00 49 1018.8
20260903204903 98 162 0.0 0.0 0.00 0.00 0.00 49 1018.9
20260903204359 98 151 0.0 2.0 0.00 0.00 0.00 49 1019.2
20260903203854 99 151 0.0 1.0 0.00 0.00 0.00 49 1019.1
20260903203350 97 157 0.0 1.0 0.00 0.00 0.00 48 1019.1
20260903202849 98 143 0.0 1.0 0.00 0.00 0.00 46 1019.0
20260903202346 100 139 1.0 2.0 0.00 0.00 0.00 43 1019.3
20260903201845 101 157 0.0 2.0 0.00 0.00 0.00 43 1019.3
20260903201340 101 146 1.0 3.0 0.00 0.00 0.00 44 1019.3
20260903200838 102 164 1.0 2.0 0.00 0.00 0.00 45 1019.3
20260903200329 101 156 0.0 3.0 0.00 0.00 0.00 46 1019.4
20260903195824 99 224 1.0 2.0 0.00 0.00 0.00 49 1019.5
20260903195320 97 154 0.0 1.0 0.00 0.00 0.00 49 1019.4
20260903194815 97 136 0.0 1.0 0.00 0.00 0.00 48 1019.3
20260903194310 97 160 0.0 2.0 0.00 0.00 0.00 50 1019.6
20260903193805 97 152 0.0 1.0 0.00 0.00 0.00 48 1019.6
20260903193301 98 153 1.0 2.0 0.00 0.00 0.00 47 1019.5
20260903192757 99 169 3.0 3.0 0.00 0.00 0.00 46 1019.8
20260903192252 100 149 0.0 1.0 0.00 0.00 0.00 45 1019.7
20260903191748 100 173 1.0 2.0 0.00 0.00 0.00 45 1019.9
20260903191238 102 157 1.0 3.0 0.00 0.00 0.00 45 1019.6